Location: Bremen
(53.0793°N, 8.8017°E)
Time: 04:05:11
(UTC+01:00)

Vanguard 1 Rocket - Pass Details

Date: 08 December 2021
Orbit: 651 x 4224 km, 34.3° (Epoch: 19 January)

Event Time Altitude Azimuth Distance (km) Brightness Sun altitude
Rises 02:25:30 0° 223° (SW) 4,255 - -51.0°
Reaches altitude 10° 02:28:22 10° 212° (SSW) 3,650 - -50.7°
Maximum altitude 02:36:29 29° 156° (SSE) 3,385 - -49.7°
Exits shadow 02:38:52 28° 141° (SE) 3,721 10.4 -49.4°
Drops below altitude 10° 02:49:50 10° 106° (ESE) 6,128 11.9 -48.0°
Sets 02:56:35 0° 98° (E) 7,700 12.6 -47.2°
